Welcome to the New NWS' Forecast!
Most changes are behind the scenes, but click here for differences you might notice.

Regional Weather Roundup (RWR)

Issued by Gray - Portland, ME (GYX)

                            
738 
ASUS41 KGYX 230505
RWRGYX
WEATHER ROUNDUP FOR MAINE AND NEW HAMPSHIRE
NATIONAL WEATHER SERVICE GRAY ME
1200 AM EST TUE JAN 23 2018

MEZ002-005-006-010-012-015-018-020-021-024-026-027-029-230600-
MAINE
  
CITY           SKY/WX    TMP DP  RH WIND       PRES   REMARKS
PORTLAND       CLOUDY    23  21  92 N10       30.23F WCI  12          
SANFORD        MIX PCPN  23  21  92 N13       30.21F WCI  11          
BAR HARBOR     LGT SNOW  21  18  88 NE6       30.29F VSB 3/4          
WISCASSET      MIX PCPN  21  20  96 VRB5      30.26F FOG              
ROCKLAND       LGT SNOW  24  23  96 NE8       30.26F VSB 1            
FRYEBURG       LGT SNOW  22  22 100 CALM      30.24F FOG              
LEWISTONAUBURN MIX PCPN  19  17  92 N10       30.25F FOG     WCI   7  
AUGUSTA        LGT SNOW  19  15  84 N7        30.26F FOG              
WATERVILLE     LGT SNOW  18  16  92 NE8       30.23F FOG              
BANGOR         SNOW      19  16  88 NE10      30.30F VSB 1/2 WCI   7  
GREENVILLE       N/A     13  11  92 SE10      30.17F WCI   0          
MILLINOCKET    LGT SNOW  15  12  88 E8        30.35F VSB 3/4          
HOULTON        LGT SNOW  13   3  64 CALM      30.34F                  
PRESQUE ISLE   FLURRIES  11   0  61 N3        30.35F                  
FRENCHVILLE    CLOUDY     7  -2  66 CALM      30.30F                  
CARIBOU        LGT SNOW  11   0  61 NE3       30.33F                  
$$

NHZ002-005-008-009-011-012-014-230600-
NEW HAMPSHIRE
  
CITY           SKY/WX    TMP DP  RH WIND       PRES   REMARKS
PORTSMOUTH     FRZ DRZL  27  26  94 N5        30.18F FOG              
ROCHESTER      CLOUDY    24  24 100 N7        30.19F FOG              
NASHUA         FRZ RAIN  29  28  96 N6        30.18F FOG              
MANCHESTER     FRZ DRZL  29  27  92 N8        30.16F FOG              
CONCORD        CLOUDY    27  24  89 N7        30.18F FOG              
LACONIA        FLURRIES  24  22  91 E8        30.19F                  
PLYMOUTH       MIX PCPN  27  25  95 CALM      30.18F                  
BERLIN         MIX PCPN  27  21  78 SE14G22   30.10F WCI  16          
WHITEFIELD     CLOUDY    36  27  69 SE14G28   30.04F                  
JAFFREY        CLOUDY    28  28 100 N5        30.11F FOG              
KEENE          CLOUDY    30  28  92 N5        30.13F                  
LEBANON        CLOUDY    29  26  89 NE6       30.12F                  
MT WASHINGTON  SNOWSHWR  18  18 100 S38G47      N/A  VSB 0   WCI  -4  
$$

VTZ005-007-008-230600-
VERMONT
  
CITY           SKY/WX    TMP DP  RH WIND       PRES   REMARKS
ST JOHNSBURY     N/A     30  29  96 MISG      30.06F                  
MONTPELIER     CLOUDY    28  27  96 S12       30.09F WCI  18          
BURLINGTON     CLOUDY    34  30  85 S9G20     29.98F                  
$$

MAZ007-012-024-CTZ003-RIZ002-NYZ038-NYZ072-230600-
SOUTHERN NEW ENGLAND AND NY
  
CITY           SKY/WX    TMP DP  RH WIND       PRES   REMARKS
BOSTON         DRIZZLE   39  39 100 NE6       30.15F FOG              
WORCESTER      FOG       30  28  92 NE7       30.09F VSB 1/4          
NANTUCKET      CLOUDY    42  42 100 SE15      30.13F                  
PROVIDENCE     FOG       38  38 100 N5        30.13F VSB 1/2          
HARTFORD       DRIZZLE   34  34 100 N6        30.13S FOG              
ALBANY         CLOUDY    38  33  82 S12       30.03F                  
NEW YORK CITY  FOG       37  35  92 NE12      30.07F VSB 1/8          
$$

ANZ081-ANZ082-ANZ150-NHZ014-MEZ023>029-230600-
COASTAL MARINE OBSERVATIONS
  
STATION/POSITION TIME  TEMP    WIND        PRES    WAVE
                       AIR SEA DIR/SP/G            HT/PER
                 (UTC) (F)     (DEG/KT/KT) (MB)    (FT/S)
MOUNT DESERT ROC 0500   35      80/ 23/ 25 1024.4F
MATINICUS ROCK   0400   35     100/ 24/ 27 1023.6F
ISLE OF SHOALS   0400   33      20/ 18/ 20 1022.0F
JEFFREYS LEDGE   0406      43                N/A     6/ 7
GEORGES BANK BUO 0350   42 54              1028.8    4/ 6
$$

.............KEY..............
   WCI - WIND CHILL
   TC  - TEMPERATURE IN CELSIUS
   VSB - VISIBILITY IN MILES
   HX  - HEAT INDEX
   FAIR- INDICATES FEW OR NO CLOUDS BELOW 12,000 FT, WITH NO 
         SIGNIFICANT WEATHER AND/OR OBSTRUCTIONS TO VISIBILITY.